This demonstration page uses our WeatherBlox Daily Observations layout. Learn more.

38.89511, -77.03637

Hourly Observations for November 17, 2017

Temp ( °F °C ) Dew Point ( °F °C ) Humidity (%) Winds ( mph kmh ) Pressure ( in mb ) Visibility ( mi km ) Precip ( " mm )
12:52 am 00:52 Cloudy 46 7.8 30 -1.1 54 54 W 9 15 30.09 1019 10 16.09344 0 0
1:52 am 01:52 Cloudy 46 7.8 30 -1.1 54 54 W 12 19 30.12 1020 10 16.09344 0 0
2:52 am 02:52 Mostly Cloudy 45 7.2 30 -1.1 56 56 WSW 10 17 30.12 1020 10 16.09344 0 0
3:52 am 03:52 Mostly Cloudy 45 7.2 30 -1.1 56 56 W 9 15 30.15 1021 10 16.09344 0 0
4:52 am 04:52 Partly Cloudy 44 6.7 29 -1.7 55 55 WNW 9 15 30.15 1021 10 16.09344 0 0
5:52 am 05:52 Clear 43 6.1 29 -1.7 58 58 WNW 8 13 30.15 1021 10 16.09344 0 0
6:52 am 06:52 Mostly Clear 43 6.1 29 -1.7 58 58 NW 9 15 30.18 1022 10 16.09344 0 0
7:52 am 07:52 Sunny 44 6.7 30 -1.1 58 58 NW 10 17 30.18 1022 10 16.09344 0 0
8:52 am 08:52 Sunny 46 7.8 30 -1.1 54 54 NW 13 20 30.21 1023 10 16.09344 0 0
9:52 am 09:52 Partly Cloudy 48 8.9 30 -1.1 50 50 NNW 16 26 30.21 1023 10 16.09344 0 0
10:52 am 10:52 Partly Cloudy 50 10 29 -1.7 44 44 NW 15 24 30.21 1023 10 16.09344 0 0
11:52 am 11:52 Partly Cloudy 51 10.6 30 -1.1 44 44 NW 12 19 30.18 1022 10 16.09344 0 0
12:52 pm 12:52 Sunny 53 11.7 28 -2.2 38 38 NW 10 17 30.18 1022 10 16.09344 0 0
1:52 pm 13:52 Partly Cloudy 53 11.7 28 -2.2 38 38 WNW 10 17 30.15 1021 10 16.09344 0 0
2:52 pm 14:52 Mostly Cloudy 52 11.1 27 -2.8 38 38 NW 9 15 30.15 1021 10 16.09344 0 0
3:52 pm 15:52 Mostly Cloudy 51 10.6 26 -3.3 38 38 NW 10 17 30.15 1021 10 16.09344 0 0
4:52 pm 16:52 Partly Cloudy 50 10 26 -3.3 39 39 WNW 7 11 30.15 1021 10 16.09344 0 0
5:52 pm 17:52 Partly Cloudy 50 10 27 -2.8 41 41 WNW 3 6 30.15 1021 10 16.09344 0 0
6:52 pm 18:52 Mostly Clear 47 8.3 34 1.1 61 61 Calm 30.12 1020 10 16.09344 0 0
7:52 pm 19:52 Partly Cloudy 43 6.1 35 1.7 74 74 Calm 30.12 1020 10 16.09344 0 0
8:52 pm 20:52 Mostly Cloudy 44 6.7 35 1.7 71 71 SSW 3 6 30.12 1020 10 16.09344 0 0
9:52 pm 21:52 Mostly Cloudy 42 5.6 32 0 68 68 SW 3 6 30.12 1020 10 16.09344 0 0
10:52 pm 22:52 Cloudy 40 4.4 31 -0.6 70 70 SW 6 9 30.09 1019 10 16.09344 0 0
11:52 pm 23:52 Mostly Cloudy 41 5 33 0.6 73 73 SSW 5 7 30.09 1019 10 16.09344 0 0

Powered by AerisWeather